| time (UTC) | temp F | wind direction | speed MPH | gust MPH | rain 1hr in | rain 24hr in | rain mn in | humidity % | barometer mb |
| 20260901074825 | 66 | 162 | 2.0 | 6.0 | 0.00 | 0.00 | 0.00 | 72 | 1018.2 |
| 20260901074823 | 66 | 146 | 8.0 | 10.0 | 0.00 | 0.00 | 0.00 | 91 | 1017.0 |
| 20260901073332 | 66 | 116 | 3.0 | 4.0 | 0.00 | 0.00 | 0.00 | 72 | 1018.5 |
| 20260901073326 | 67 | 150 | 6.0 | 9.0 | 0.00 | 0.00 | 0.00 | 91 | 1017.3 |
| 20260901071902 | 66 | 137 | 1.0 | 2.0 | 0.00 | 0.00 | 0.00 | 71 | 1018.7 |
| 20260901071847 | 68 | 137 | 5.0 | 10.0 | 0.00 | 0.00 | 0.00 | 89 | 1017.3 |
| 20260901070358 | 67 | 110 | 0.0 | 0.0 | 0.00 | 0.00 | 0.00 | 70 | 1019.0 |
| 20260901070347 | 68 | 155 | 6.0 | 8.0 | 0.00 | 0.00 | 0.00 | 88 | 1017.7 |
| 20260901064910 | 67 | 87 | 1.0 | 4.0 | 0.00 | 0.00 | 0.00 | 70 | 1019.2 |
| 20260901064846 | 68 | 146 | 5.0 | 7.0 | 0.00 | 0.00 | 0.00 | 88 | 1017.9 |
| 20260901063355 | 67 | 104 | 1.0 | 3.0 | 0.00 | 0.00 | 0.00 | 69 | 1019.2 |
| 20260901063331 | 67 | 150 | 5.0 | 6.0 | 0.00 | 0.00 | 0.00 | 90 | 1017.9 |
| 20260901061842 | 67 | 87 | 2.0 | 3.0 | 0.00 | 0.00 | 0.00 | 69 | 1019.2 |
| 20260901061833 | 66 | 101 | 0.0 | 0.0 | 0.00 | 0.00 | 0.00 | 90 | 1018.0 |
| 20260901060432 | 67 | 85 | 0.0 | 1.0 | 0.00 | 0.00 | 0.00 | 69 | 1019.3 |
| 20260901060316 | 67 | 101 | 0.0 | 0.0 | 0.00 | 0.00 | 0.00 | 90 | 1018.1 |
| 20260901054825 | 67 | 86 | 3.0 | 5.0 | 0.00 | 0.00 | 0.00 | 68 | 1019.2 |
| 20260901054817 | 67 | 101 | 0.0 | 0.0 | 0.00 | 0.00 | 0.00 | 88 | 1017.9 |
| 20260901053419 | 67 | 83 | 0.0 | 2.0 | 0.00 | 0.00 | 0.00 | 68 | 1019.4 |
| 20260901053325 | 67 | 101 | 0.0 | 0.0 | 0.00 | 0.00 | 0.00 | 88 | 1018.1 |
| 20260901051857 | 67 | 101 | 0.0 | 0.0 | 0.00 | 0.00 | 0.00 | 87 | 1018.1 |
| 20260901051838 | 67 | 129 | 0.0 | 0.0 | 0.00 | 0.00 | 0.00 | 68 | 1019.4 |
| 20260901051815 | 67 | 101 | 0.0 | 0.0 | 0.00 | 0.00 | 0.00 | 87 | 1018.1 |
| 20260901050415 | 68 | 129 | 0.0 | 1.0 | 0.00 | 0.00 | 0.00 | 67 | 1019.3 |
| 20260901050338 | 68 | 101 | 0.0 | 0.0 | 0.00 | 0.00 | 0.00 | 86 | 1018.0 |
| 20260901044937 | 68 | 129 | 0.0 | 2.0 | 0.00 | 0.00 | 0.00 | 67 | 1019.3 |
| 20260901044919 | 69 | 101 | 0.0 | 5.0 | 0.00 | 0.00 | 0.00 | 85 | 1017.8 |
| 20260901043339 | 69 | 128 | 2.0 | 9.0 | 0.00 | 0.00 | 0.00 | 85 | 1017.9 |
| 20260901041833 | 68 | 153 | 2.0 | 5.0 | 0.00 | 0.00 | 0.00 | 86 | 1017.9 |
| 20260901041824 | 68 | 125 | 1.0 | 3.0 | 0.00 | 0.00 | 0.00 | 66 | 1019.2 |
| 20260901040414 | 68 | 85 | 0.0 | 2.0 | 0.00 | 0.00 | 0.00 | 66 | 1019.3 |
| 20260901040330 | 69 | 142 | 0.0 | 0.0 | 0.00 | 0.00 | 0.00 | 83 | 1017.9 |
| 20260901034852 | 70 | 142 | 0.0 | 1.0 | 0.00 | 0.00 | 0.00 | 82 | 1017.8 |
| 20260901034832 | 68 | 101 | 2.0 | 4.0 | 0.00 | 0.00 | 0.00 | 67 | 1019.3 |
| 20260901033410 | 68 | 93 | 2.0 | 3.0 | 0.00 | 0.00 | 0.00 | 67 | 1019.2 |
| 20260901033321 | 70 | 159 | 2.0 | 4.0 | 0.00 | 0.00 | 0.00 | 82 | 1017.9 |
| 20260901031852 | 68 | 116 | 1.0 | 3.0 | 0.00 | 0.00 | 0.00 | 68 | 1019.5 |
| 20260901031824 | 70 | 94 | 0.0 | 1.0 | 0.00 | 0.00 | 0.00 | 82 | 1018.1 |
| 20260901030332 | 68 | 114 | 0.0 | 0.0 | 0.00 | 0.00 | 0.00 | 68 | 1019.6 |
| 20260901024850 | 70 | 344 | 0.0 | 3.0 | 0.00 | 0.00 | 0.00 | 82 | 1018.3 |
| 20260901024840 | 68 | 114 | 0.0 | 0.0 | 0.00 | 0.00 | 0.00 | 68 | 1019.7 |
| 20260901023348 | 68 | 114 | 0.0 | 0.0 | 0.00 | 0.00 | 0.00 | 68 | 1019.7 |
| 20260901023313 | 70 | 329 | 0.0 | 1.0 | 0.00 | 0.00 | 0.00 | 83 | 1018.2 |
| 20260901021837 | 70 | 287 | 0.0 | 2.0 | 0.00 | 0.00 | 0.00 | 82 | 1018.1 |
| 20260901021834 | 68 | 114 | 1.0 | 3.0 | 0.00 | 0.00 | 0.00 | 67 | 1019.6 |
| 20260901020401 | 68 | 83 | 1.0 | 3.0 | 0.00 | 0.00 | 0.00 | 67 | 1019.6 |
| 20260901020323 | 70 | 23 | 0.0 | 2.0 | 0.00 | 0.00 | 0.00 | 81 | 1018.1 |
| 20260901014903 | 70 | 98 | 0.0 | 3.0 | 0.00 | 0.00 | 0.00 | 82 | 1018.1 |
| 20260901014846 | 68 | 96 | 2.0 | 3.0 | 0.00 | 0.00 | 0.00 | 66 | 1019.6 |
| 20260901013401 | 69 | 116 | 2.0 | 3.0 | 0.00 | 0.00 | 0.00 | 66 | 1019.6 |
| 20260901013330 | 70 | 77 | 0.0 | 1.0 | 0.00 | 0.00 | 0.00 | 81 | 1018.1 |
| 20260901011913 | 71 | 89 | 0.0 | 1.0 | 0.00 | 0.00 | 0.00 | 81 | 1018.2 |
| 20260901011902 | 69 | 93 | 2.0 | 4.0 | 0.00 | 0.00 | 0.00 | 66 | 1019.6 |
| 20260901010404 | 71 | 106 | 1.0 | 2.0 | 0.00 | 0.00 | 0.00 | 81 | 1018.1 |
| 20260901010351 | 69 | 115 | 1.0 | 2.0 | 0.00 | 0.00 | 0.00 | 65 | 1019.6 |
| 20260901004923 | 69 | 150 | 2.0 | 8.0 | 0.00 | 0.00 | 0.00 | 64 | 1019.6 |
| 20260901004845 | 71 | 234 | 0.0 | 2.0 | 0.00 | 0.00 | 0.00 | 80 | 1018.1 |
| 20260901003414 | 71 | 107 | 0.0 | 2.0 | 0.00 | 0.00 | 0.00 | 79 | 1018.2 |
| 20260901003346 | 70 | 126 | 2.0 | 4.0 | 0.00 | 0.00 | 0.00 | 63 | 1019.6 |
| 20260901001923 | 71 | 310 | 0.0 | 1.0 | 0.00 | 0.00 | 0.00 | 78 | 1018.0 |
| 20260901001832 | 70 | 133 | 2.0 | 7.0 | 0.00 | 0.00 | 0.00 | 63 | 1019.5 |
| 20260901000402 | 70 | 106 | 1.0 | 3.0 | 0.00 | 0.00 | 0.00 | 63 | 1019.3 |
| 20260901000322 | 71 | 323 | 0.0 | 0.0 | 0.00 | 0.00 | 0.00 | 77 | 1017.9 |
| 20260831234908 | 70 | 101 | 1.0 | 2.0 | 0.00 | 0.00 | 0.00 | 63 | 1019.3 |
| 20260831234826 | 70 | 101 | 1.0 | 2.0 | 0.00 | 0.00 | 0.00 | 63 | 1019.3 |
| 20260831234820 | 72 | 333 | 0.0 | 1.0 | 0.00 | 0.00 | 0.00 | 77 | 1017.9 |
| 20260831233413 | 72 | 181 | 0.0 | 0.0 | 0.00 | 0.00 | 0.00 | 76 | 1018.0 |
| 20260831233332 | 70 | 98 | 2.0 | 3.0 | 0.00 | 0.00 | 0.00 | 62 | 1019.4 |
| 20260831231841 | 71 | 95 | 2.0 | 3.0 | 0.00 | 0.00 | 0.00 | 61 | 1019.5 |
| 20260831231812 | 72 | 87 | 0.0 | 1.0 | 0.00 | 0.00 | 0.00 | 76 | 1018.1 |
| 20260831230403 | 73 | 13 | 0.0 | 1.0 | 0.00 | 0.00 | 0.00 | 75 | 1018.3 |
| 20260831230343 | 71 | 111 | 2.0 | 4.0 | 0.00 | 0.00 | 0.00 | 60 | 1019.7 |
| 20260831224850 | 71 | 77 | 2.0 | 4.0 | 0.00 | 0.00 | 0.00 | 60 | 1019.9 |
| 20260831224817 | 73 | 44 | 0.0 | 0.0 | 0.00 | 0.00 | 0.00 | 75 | 1018.5 |
| 20260831223409 | 73 | 311 | 0.0 | 3.0 | 0.00 | 0.00 | 0.00 | 74 | 1018.6 |
| 20260831223333 | 72 | 87 | 2.0 | 5.0 | 0.00 | 0.00 | 0.00 | 59 | 1020.1 |
| 20260831221848 | 74 | 150 | 1.0 | 4.0 | 0.00 | 0.00 | 0.00 | 74 | 1018.6 |
| 20260831221835 | 72 | 81 | 2.0 | 4.0 | 0.00 | 0.00 | 0.00 | 59 | 1020.0 |
| 20260831220336 | 72 | 141 | 2.0 | 4.0 | 0.00 | 0.00 | 0.00 | 58 | 1019.9 |
| 20260831220316 | 73 | 134 | 1.0 | 3.0 | 0.00 | 0.00 | 0.00 | 74 | 1018.5 |
| 20260831214840 | 73 | 87 | 1.0 | 4.0 | 0.00 | 0.00 | 0.00 | 57 | 1019.9 |
| 20260831214817 | 75 | 13 | 0.0 | 3.0 | 0.00 | 0.00 | 0.00 | 72 | 1018.4 |
| 20260831213334 | 74 | 88 | 1.0 | 9.0 | 0.00 | 0.00 | 0.00 | 56 | 1019.9 |
| 20260831213324 | 76 | 292 | 1.0 | 3.0 | 0.00 | 0.00 | 0.00 | 71 | 1018.6 |
| 20260831211841 | 75 | 153 | 1.0 | 7.0 | 0.00 | 0.00 | 0.00 | 53 | 1019.9 |
| 20260831211813 | 76 | 126 | 2.0 | 7.0 | 0.00 | 0.00 | 0.00 | 70 | 1018.5 |
| 20260831210425 | 75 | 109 | 4.0 | 8.0 | 0.00 | 0.00 | 0.00 | 69 | 1018.3 |
| 20260831210353 | 76 | 94 | 1.0 | 6.0 | 0.00 | 0.00 | 0.00 | 52 | 1019.7 |
| 20260831204913 | 75 | 135 | 1.0 | 4.0 | 0.00 | 0.00 | 0.00 | 53 | 1019.9 |
| 20260831204845 | 76 | 129 | 2.0 | 8.0 | 0.00 | 0.00 | 0.00 | 68 | 1018.5 |
| 20260831203421 | 75 | 98 | 2.0 | 5.0 | 0.00 | 0.00 | 0.00 | 51 | 1019.9 |
| 20260831203328 | 76 | 63 | 2.0 | 8.0 | 0.00 | 0.00 | 0.00 | 68 | 1018.6 |
| 20260831201844 | 76 | 104 | 2.0 | 5.0 | 0.00 | 0.00 | 0.00 | 49 | 1020.1 |
| 20260831201830 | 75 | 130 | 1.0 | 3.0 | 0.00 | 0.00 | 0.00 | 66 | 1018.5 |
| 20260831200435 | 76 | 189 | 2.0 | 6.0 | 0.00 | 0.00 | 0.00 | 50 | 1020.1 |
| 20260831200334 | 74 | 156 | 1.0 | 8.0 | 0.00 | 0.00 | 0.00 | 67 | 1018.8 |
| 20260831194900 | 77 | 127 | 2.0 | 9.0 | 0.00 | 0.00 | 0.00 | 46 | 1020.2 |
| 20260831194812 | 75 | 152 | 5.0 | 9.0 | 0.00 | 0.00 | 0.00 | 64 | 1018.9 |
| 20260831193414 | 78 | 204 | 3.0 | 8.0 | 0.00 | 0.00 | 0.00 | 48 | 1020.3 |
| 20260831193337 | 74 | 133 | 5.0 | 9.0 | 0.00 | 0.00 | 0.00 | 67 | 1018.9 |
| 20260831191825 | 77 | 271 | 1.0 | 5.0 | 0.00 | 0.00 | 0.00 | 47 | 1020.3 |
| 20260831191818 | 74 | 130 | 4.0 | 9.0 | 0.00 | 0.00 | 0.00 | 67 | 1019.1 |
| 20260831190404 | 74 | 142 | 4.0 | 9.0 | 0.00 | 0.00 | 0.00 | 68 | 1019.2 |
| 20260831190338 | 77 | 237 | 3.0 | 7.0 | 0.00 | 0.00 | 0.00 | 47 | 1020.5 |
| 20260831184851 | 74 | 140 | 5.0 | 8.0 | 0.00 | 0.00 | 0.00 | 66 | 1019.3 |
| 20260831184843 | 75 | 145 | 2.0 | 5.0 | 0.00 | 0.00 | 0.00 | 50 | 1020.6 |
| 20260831183443 | 75 | 264 | 2.0 | 5.0 | 0.00 | 0.00 | 0.00 | 50 | 1020.7 |
| 20260831183416 | 75 | 146 | 4.0 | 5.0 | 0.00 | 0.00 | 0.00 | 64 | 1019.4 |
| 20260831181828 | 76 | 193 | 3.0 | 7.0 | 0.00 | 0.00 | 0.00 | 48 | 1020.7 |
| 20260831181814 | 75 | 287 | 2.0 | 7.0 | 0.00 | 0.00 | 0.00 | 63 | 1019.4 |
| 20260831180359 | 76 | 124 | 3.0 | 5.0 | 0.00 | 0.00 | 0.00 | 47 | 1020.8 |
| 20260831180339 | 75 | 148 | 4.0 | 7.0 | 0.00 | 0.00 | 0.00 | 63 | 1019.5 |
| 20260831174903 | 75 | 274 | 1.0 | 4.0 | 0.00 | 0.00 | 0.00 | 51 | 1021.0 |
| 20260831174818 | 75 | 136 | 3.0 | 4.0 | 0.00 | 0.00 | 0.00 | 62 | 1019.7 |
| 20260831173411 | 75 | 288 | 1.0 | 3.0 | 0.00 | 0.00 | 0.00 | 48 | 1021.2 |
| 20260831173325 | 74 | 150 | 2.0 | 5.0 | 0.00 | 0.00 | 0.00 | 60 | 1019.9 |
| 20260831171933 | 74 | 132 | 2.0 | 5.0 | 0.00 | 0.00 | 0.00 | 60 | 1019.9 |
| 20260831171835 | 75 | 10 | 1.0 | 4.0 | 0.00 | 0.00 | 0.00 | 43 | 1021.2 |
| 20260831171829 | 74 | 132 | 2.0 | 5.0 | 0.00 | 0.00 | 0.00 | 60 | 1019.9 |
| 20260831170405 | 76 | 226 | 3.0 | 5.0 | 0.00 | 0.00 | 0.00 | 46 | 1021.3 |
| 20260831170330 | 74 | 141 | 4.0 | 5.0 | 0.00 | 0.00 | 0.00 | 58 | 1020.2 |
| 20260831164826 | 75 | 337 | 2.0 | 6.0 | 0.00 | 0.00 | 0.00 | 44 | 1021.5 |
| 20260831164824 | 73 | 150 | 4.0 | 7.0 | 0.00 | 0.00 | 0.00 | 57 | 1020.4 |
| 20260831163332 | 75 | 96 | 1.0 | 3.0 | 0.00 | 0.00 | 0.00 | 47 | 1021.6 |
| 20260831163329 | 76 | 127 | 3.0 | 4.0 | 0.00 | 0.00 | 0.00 | 52 | 1020.5 |
| 20260831161836 | 73 | 25 | 2.0 | 4.0 | 0.00 | 0.00 | 0.00 | 44 | 1021.7 |
| 20260831161828 | 77 | 129 | 1.0 | 2.0 | 0.00 | 0.00 | 0.00 | 49 | 1020.7 |
| 20260831160346 | 77 | 13 | 1.0 | 4.0 | 0.00 | 0.00 | 0.00 | 49 | 1020.7 |
| 20260831160336 | 73 | 301 | 3.0 | 5.0 | 0.00 | 0.00 | 0.00 | 44 | 1022.0 |
| 20260831154910 | 76 | 33 | 2.0 | 4.0 | 0.00 | 0.00 | 0.00 | 55 | 1020.8 |
| 20260831154841 | 73 | 314 | 3.0 | 4.0 | 0.00 | 0.00 | 0.00 | 48 | 1022.3 |
| 20260831153409 | 72 | 308 | 2.0 | 6.0 | 0.00 | 0.00 | 0.00 | 58 | 1022.3 |
| 20260831153326 | 72 | 63 | 2.0 | 4.0 | 0.00 | 0.00 | 0.00 | 60 | 1020.9 |
| 20260831151859 | 72 | 310 | 1.0 | 5.0 | 0.00 | 0.00 | 0.00 | 64 | 1022.2 |
| 20260831151824 | 73 | 323 | 2.0 | 3.0 | 0.00 | 0.00 | 0.00 | 64 | 1020.7 |
| 20260831150402 | 71 | 210 | 1.0 | 5.0 | 0.00 | 0.00 | 0.00 | 68 | 1022.4 |
| 20260831150348 | 74 | 138 | 1.0 | 4.0 | 0.00 | 0.00 | 0.00 | 61 | 1020.8 |
| 20260831144840 | 70 | 214 | 2.0 | 3.0 | 0.00 | 0.00 | 0.00 | 70 | 1022.3 |
| 20260831144823 | 75 | 76 | 2.0 | 3.0 | 0.00 | 0.00 | 0.00 | 63 | 1020.9 |
| 20260831143348 | 69 | 102 | 2.0 | 4.0 | 0.00 | 0.00 | 0.00 | 75 | 1022.5 |
| 20260831143324 | 73 | 25 | 1.0 | 4.0 | 0.00 | 0.00 | 0.00 | 67 | 1021.0 |
| 20260831141840 | 73 | 360 | 1.0 | 3.0 | 0.00 | 0.00 | 0.00 | 69 | 1021.0 |
| 20260831141827 | 68 | 283 | 1.0 | 4.0 | 0.00 | 0.00 | 0.00 | 80 | 1022.6 |
| 20260831140358 | 71 | 151 | 2.0 | 3.0 | 0.00 | 0.00 | 0.00 | 74 | 1021.0 |
| 20260831134838 | 65 | 224 | 1.0 | 3.0 | 0.00 | 0.00 | 0.00 | 86 | 1022.5 |
| 20260831134830 | 68 | 111 | 1.0 | 5.0 | 0.00 | 0.00 | 0.00 | 78 | 1021.0 |
| 20260831133407 | 64 | 280 | 2.0 | 4.0 | 0.00 | 0.00 | 0.00 | 87 | 1022.6 |
| 20260831133332 | 67 | 307 | 2.0 | 4.0 | 0.00 | 0.00 | 0.00 | 83 | 1021.1 |
| 20260831131924 | 65 | 167 | 2.0 | 4.0 | 0.00 | 0.00 | 0.00 | 87 | 1021.0 |
| 20260831131835 | 63 | 14 | 0.0 | 2.0 | 0.00 | 0.00 | 0.00 | 90 | 1022.4 |
| 20260831130336 | 61 | 272 | 2.0 | 3.0 | 0.00 | 0.00 | 0.00 | 90 | 1022.4 |
| 20260831130321 | 64 | 76 | 1.0 | 3.0 | 0.00 | 0.00 | 0.00 | 92 | 1021.1 |
| 20260831124842 | 61 | 237 | 0.0 | 0.0 | 0.00 | 0.00 | 0.00 | 90 | 1022.4 |
| 20260831123407 | 60 | 237 | 0.0 | 0.0 | 0.00 | 0.00 | 0.00 | 90 | 1022.5 |
| 20260831123349 | 60 | 27 | 1.0 | 4.0 | 0.00 | 0.00 | 0.00 | 98 | 1020.9 |
| 20260831121854 | 59 | 251 | 0.0 | 2.0 | 0.00 | 0.00 | 0.00 | 90 | 1022.4 |
| 20260831121827 | 60 | 10 | 2.0 | 5.0 | 0.00 | 0.00 | 0.00 | 97 | 1020.8 |
| 20260831120424 | 58 | 315 | 1.0 | 3.0 | 0.00 | 0.00 | 0.00 | 90 | 1022.3 |
| 20260831120400 | 59 | 39 | 1.0 | 3.0 | 0.00 | 0.00 | 0.00 | 98 | 1020.7 |
| 20260831114849 | 57 | 99 | 0.0 | 0.0 | 0.00 | 0.00 | 0.00 | 89 | 1022.2 |
| 20260831114832 | 59 | 21 | 0.0 | 5.0 | 0.00 | 0.00 | 0.00 | 98 | 1020.7 |
| 20260831113449 | 57 | 99 | 0.0 | 0.0 | 0.00 | 0.00 | 0.00 | 89 | 1022.0 |
| 20260831113319 | 59 | 5 | 1.0 | 2.0 | 0.00 | 0.00 | 0.00 | 97 | 1020.7 |
| 20260831111827 | 57 | 142 | 0.0 | 0.0 | 0.00 | 0.00 | 0.00 | 90 | 1021.9 |
| 20260831111820 | 59 | 5 | 0.0 | 2.0 | 0.00 | 0.00 | 0.00 | 97 | 1020.5 |
| 20260831110344 | 59 | 329 | 1.0 | 2.0 | 0.00 | 0.00 | 0.00 | 97 | 1020.2 |
| 20260831110331 | 57 | 142 | 0.0 | 2.0 | 0.00 | 0.00 | 0.00 | 89 | 1021.7 |
| 20260831104845 | 58 | 360 | 1.0 | 3.0 | 0.00 | 0.00 | 0.00 | 98 | 1020.2 |
| 20260831104832 | 56 | 35 | 0.0 | 0.0 | 0.00 | 0.00 | 0.00 | 87 | 1021.5 |
| 20260831103416 | 57 | 333 | 0.0 | 0.0 | 0.00 | 0.00 | 0.00 | 97 | 1020.1 |
| 20260831103342 | 57 | 35 | 0.0 | 0.0 | 0.00 | 0.00 | 0.00 | 87 | 1021.1 |
| 20260831101931 | 57 | 333 | 0.0 | 1.0 | 0.00 | 0.00 | 0.00 | 96 | 1020.1 |
| 20260831101828 | 57 | 333 | 0.0 | 1.0 | 0.00 | 0.00 | 0.00 | 96 | 1020.1 |
| 20260831101826 | 57 | 35 | 0.0 | 0.0 | 0.00 | 0.00 | 0.00 | 87 | 1021.3 |
| 20260831100419 | 57 | 333 | 0.0 | 1.0 | 0.00 | 0.00 | 0.00 | 96 | 1020.1 |
| 20260831100336 | 57 | 333 | 0.0 | 1.0 | 0.00 | 0.00 | 0.00 | 96 | 1020.1 |
| 20260831100329 | 58 | 35 | 0.0 | 0.0 | 0.00 | 0.00 | 0.00 | 87 | 1021.3 |
| 20260831094837 | 57 | 333 | 1.0 | 2.0 | 0.00 | 0.00 | 0.00 | 96 | 1020.0 |
| 20260831094833 | 58 | 35 | 0.0 | 0.0 | 0.00 | 0.00 | 0.00 | 87 | 1021.2 |
| 20260831093458 | 59 | 35 | 0.0 | 0.0 | 0.00 | 0.00 | 0.00 | 84 | 1021.0 |
| 20260831093315 | 57 | 333 | 2.0 | 2.0 | 0.00 | 0.00 | 0.00 | 96 | 1019.9 |
| 20260831091902 | 59 | 35 | 0.0 | 0.0 | 0.00 | 0.00 | 0.00 | 83 | 1020.9 |
| 20260831091815 | 58 | 333 | 1.0 | 2.0 | 0.00 | 0.00 | 0.00 | 96 | 1019.8 |
| 20260831090402 | 59 | 35 | 0.0 | 0.0 | 0.00 | 0.00 | 0.00 | 80 | 1020.8 |
| 20260831090313 | 58 | 333 | 0.0 | 2.0 | 0.00 | 0.00 | 0.00 | 96 | 1019.8 |
| 20260831084855 | 59 | 333 | 0.0 | 1.0 | 0.00 | 0.00 | 0.00 | 95 | 1019.6 |
| 20260831084853 | 60 | 35 | 0.0 | 0.0 | 0.00 | 0.00 | 0.00 | 79 | 1020.8 |
| 20260831083357 | 60 | 35 | 0.0 | 0.0 | 0.00 | 0.00 | 0.00 | 78 | 1020.8 |
| 20260831083329 | 59 | 333 | 2.0 | 2.0 | 0.00 | 0.00 | 0.00 | 95 | 1019.5 |
| 20260831081915 | 59 | 333 | 0.0 | 1.0 | 0.00 | 0.00 | 0.00 | 95 | 1019.4 |
| 20260831081837 | 60 | 35 | 0.0 | 0.0 | 0.00 | 0.00 | 0.00 | 77 | 1020.6 |
| 20260831080339 | 61 | 35 | 0.0 | 0.0 | 0.00 | 0.00 | 0.00 | 74 | 1020.5 |
| 20260831080316 | 60 | 333 | 0.0 | 1.0 | 0.00 | 0.00 | 0.00 | 95 | 1019.3 |